#timestamp,LO_Frequency,Hit 
1505376015.2,286047003.5,N
1505376035.1,286047005.8,N
1505376036.0,286047005.8,N
1505376055.8,286046996.8,N
1505376075.6,286046995.6,N
1505376095.5,286046997.2,N
1505376115.3,286047000.9,N
1505376135.1,286047002.4,N
1505376155.9,286047003.8,N
1505376175.7,286047005.2,N
1505376195.5,286047006.0,N
1505376215.4,286047002.6,N
1505376235.2,286046999.1,N
1505376255.0,286047002.8,N
1505376255.9,286047002.8,N
1505376275.8,286046997.4,N
1505376295.6,286046997.6,N
1505376315.4,286046997.0,N
1505376335.2,286046996.9,N
1505376355.1,286046997.0,N
1505376356.0,286046997.0,N
1505376375.8,286046998.6,N
1505376395.6,286047000.1,N
1505376415.5,286046998.2,N
1505376435.3,286046996.2,N
1505376455.1,286046997.4,N
1505376475.9,286046997.4,N
1505376495.7,286047002.5,N
1505376515.5,286047003.9,N
1505376535.4,286047001.3,N
1505376555.2,286047001.9,N
1505376575.0,286047004.4,N
1505376575.9,286047004.4,N
1505376595.8,286047002.1,N
1505376615.6,286047002.8,N
1505376635.4,286047000.3,N
1505376655.3,286046999.0,N
1505376675.1,286046996.1,N
1505376676.0,286046996.1,N
1505376695.8,286046993.4,N
1505376715.7,286046999.3,N
1505376735.5,286046999.1,N
1505376755.3,286047000.0,N
1505376775.1,286046999.8,N
1505376795.9,286047003.8,N
1505376815.7,286047005.2,N
1505376835.5,286047004.7,N
1505376855.4,286047004.1,N
1505376875.2,286047007.3,N
1505376895.0,286047004.7,N
1505376895.9,286047004.7,N
1505376915.8,286047000.1,N
1505376935.6,286047005.8,N
1505376955.4,286047006.0,N
1505376975.3,286047001.6,N
1505376995.1,286047000.3,N
1505376996.0,286047000.3,N
1505377015.8,286046997.2,N
1505377035.7,286046999.5,N
1505377055.5,286047000.3,N
1505377075.3,286047001.6,N
1505377095.2,286047000.7,N
1505377115.9,286047002.6,N
1505377135.7,286047004.2,N
1505377155.6,286047000.1,N
1505377175.4,286047000.3,N
1505377195.2,286046997.1,N
1505377215.0,286047005.6,N
1505377216.0,286047005.6,N
1505377235.8,286047000.0,N
1505377255.6,286046998.5,N
1505377275.4,286046997.4,N
1505377295.3,286046998.2,N
1505377315.1,286047000.8,N
1505377335.8,286047001.8,N
1505377355.7,286047006.9,N
1505377375.5,286047010.4,P
1505377395.3,286047005.8,N
1505377415.2,286047001.0,N
1505377435.0,286046995.2,N
1505377435.9,286046995.2,N
1505377455.7,286046995.9,N
1505377475.6,286046995.3,N
1505377495.4,286046999.4,N
1505377515.2,286046999.0,N
1505377535.1,286046997.7,N
1505377536.0,286046997.7,N
1505377555.8,286046996.1,N
1505377575.6,286046996.1,N
1505377595.5,286046997.7,N
1505377615.3,286047000.8,N
1505377635.1,286046999.4,N
1505377655.9,286046997.4,N
1505377675.7,286046997.9,N
1505377695.5,286046997.5,N
1505377715.3,286046998.6,N
1505377735.2,286047001.9,N
1505377755.0,286047003.7,N
1505377755.9,286047003.7,N
1505377775.7,286047002.6,N
1505377795.6,286047003.6,N
1505377815.4,286047001.3,N
1505377835.2,286047003.7,N
1505377855.1,286047002.2,N
1505377856.0,286047002.2,N
1505377875.8,286047003.5,N
1505377895.6,286047004.9,N
1505377915.5,286047005.1,N
1505377935.3,286047006.7,N
1505377955.1,286047007.3,N
1505377975.9,286047006.2,N
1505377995.7,286047006.8,N
1505378015.5,286046999.9,N
1505378035.4,286047000.6,N
1505378055.2,286047004.1,N
1505378075.0,286047002.6,N
1505378075.9,286047002.6,N
1505378095.8,286047005.5,N
1505378115.6,286047006.6,N
1505378135.4,286047005.3,N
1505378155.2,286047003.1,N
1505378175.1,286047005.7,N
1505378176.0,286047005.7,N
1505378195.8,286047005.5,N
1505378215.6,286047004.6,N
1505378235.5,286047003.1,N
1505378255.3,286047007.6,P
1505378275.1,286047004.3,N
1505378295.9,286047002.3,N
1505378315.7,286047005.7,N
1505378335.5,286047002.7,N
1505378355.4,286046999.4,N
1505378375.2,286046999.5,N
1505378395.0,286046995.8,N
1505378395.9,286046995.8,N
1505378415.8,286046994.2,N
1505378435.6,286046997.7,N
1505378455.4,286046996.5,N
1505378475.3,286046994.0,N
1505378495.1,286046993.5,N
1505378496.0,286046993.5,N
1505378515.8,286046995.4,N
1505378535.7,286046991.7,N
1505378555.5,286046990.3,N
1505378575.3,286046998.0,N
1505378595.2,286046994.9,N
1505378615.9,286046998.0,N
1505378635.7,286046996.8,N
1505378655.5,286047001.1,N
1505378675.4,286047002.8,N
1505378695.2,286047005.9,N
1505378715.0,286047003.1,N
1505378715.9,286047003.1,N
1505378735.8,286047006.8,N
1505378755.6,286047005.3,N
1505378775.4,286047007.1,N
1505378795.3,286047007.3,N
1505378815.1,286047005.2,N
1505378816.0,286047005.2,N
1505378835.8,286047007.1,N
1505378855.7,286047006.1,N
1505378875.5,286047007.7,N
1505378895.3,286047010.1,N
1505378915.2,286047011.9,N
1505378935.9,286047008.6,N
1505378955.7,286047004.5,N
1505378975.5,286047003.3,N
1505378995.4,286047000.2,N
1505379015.2,286047002.0,N
1505379035.0,286047000.0,N
1505379035.9,286047000.0,N
1505379055.8,286047001.9,N
1505379075.6,286047002.1,N
1505379095.4,286047007.2,N
1505379115.3,286047007.6,N
1505379135.1,286047006.1,N
1505379136.0,286047006.1,N
1505379155.8,286047007.3,N
1505379175.7,286047002.1,N
1505379195.5,286047000.9,N
1505379215.3,286047002.0,N
1505379235.2,286047001.4,N
1505379255.9,286047002.2,N
1505379275.7,286047005.8,N
1505379295.6,286047002.9,N
1505379315.4,286047007.2,N
1505379335.2,286047007.8,N
1505379355.0,286047005.8,N
1505379356.0,286047005.8,N
1505379375.8,286047004.4,N
1505379395.6,286047002.1,N
1505379415.4,286046998.1,N
1505379435.3,286047001.4,N
1505379455.1,286046998.1,N
1505379475.8,286047000.6,N
1505379495.7,286047000.9,N
1505379515.5,286047000.6,N
1505379535.3,286047000.6,N
1505379555.2,286047001.4,N
1505379575.9,286047003.8,N
1505379595.7,286047003.1,N
